Theta_e
352 352 349 347 346 346 346 347 347 347 346 346 344 341 336 332 329 328 326 325 327 328 329 332 335 336 335 332 329 327 325 334 338 341 340 338 340 332 335 341 346 343 329
353 351 349 348 346 348 347 347 347 346 345 343 343 340 334 330 327 323 324 326 329 331 330 328 329 331 330 326 326 328 327 334 344 347 348 347 339 338 332 344 347 342 326
353 350 348 347 345 348 348 348 347 346 344 343 344 342 336 332 326 324 327 327 328 327 326 327 328 330 330 328 328 327 333 338 346 348 348 350 347 340 336 341 344 341 326
354 351 348 346 345 347 348 346 345 345 347 343 341 337 336 335 333 330 329 329 329 333 336 336 328 328 329 330 332 334 341 340 347 348 349 349 350 342 340 340 340 336 330
355 349 347 346 344 345 346 345 345 343 342 340 338 336 334 330 329 328 328 331 330 332 336 331 329 331 333 333 337 340 341 347 347 346 349 349 347 347 342 340 340 339 336
351 349 348 346 343 346 347 345 344 346 344 340 337 334 333 331 330 330 331 328 329 332 329 329 332 333 333 340 339 336 342 348 349 348 350 350 346 346 336 338 341 340 339
350 348 347 346 347 348 348 346 345 344 344 343 338 336 333 333 331 328 325 327 328 329 328 331 337 340 340 340 338 340 342 347 349 352 349 351 349 340 334 337 336 342 341
349 348 347 345 349 349 347 347 345 345 346 346 346 346 339 334 330 326 327 328 326 329 332 339 341 341 339 338 339 343 343 346 344 350 350 350 344 341 339 334 334 336 339
354 348 348 347 347 350 348 347 345 345 346 346 343 336 335 334 340 334 328 331 333 335 339 340 343 343 344 346 346 346 346 348 350 351 347 349 349 346 345 343 340 333 335
353 351 348 347 346 349 348 348 346 346 346 344 339 334 342 343 342 328 329 337 339 341 343 344 345 345 347 345 346 345 347 348 351 351 350 347 349 344 344 345 347 342 338
352 350 350 346 348 348 344 343 344 343 339 338 339 342 344 347 338 336 344 339 342 344 345 343 341 342 345 347 347 345 345 348 351 353 350 350 350 346 344 343 347 347 344
352 350 349 346 343 347 343 341 340 336 339 344 348 344 349 350 344 349 339 341 342 344 349 345 348 347 348 345 347 344 347 351 351 350 352 349 350 349 347 345 347 347 346
352 351 349 347 343 345 342 339 340 346 348 348 345 346 353 349 346 345 345 347 350 350 347 343 346 349 345 347 347 349 349 349 351 349 350 350 351 350 352 348 349 348 347
352 351 350 347 346 344 343 340 339 338 344 343 345 348 348 347 343 345 347 347 341 348 347 345 345 347 350 349 351 351 353 350 352 352 351 352 348 351 350 348 348 348 348
355 352 350 349 346 344 341 340 337 337 333 345 346 343 346 347 344 342 345 345 346 348 349 348 346 350 348 352 351 347 347 349 349 349 347 349 350 352 352 349 346 347 347
355 353 351 350 346 346 339 336 340 341 342 345 344 346 350 346 343 346 343 347 348 349 344 343 349 348 350 351 348 351 351 349 348 351 349 352 352 353 353 347 344 345 347
354 350 351 350 347 347 342 334 330 335 341 343 344 346 347 344 343 348 347 347 350 347 350 351 348 347 350 348 350 350 350 353 350 353 353 350 350 353 352 335 350 345 346
352 350 351 350 354 345 341 339 334 342 335 337 344 341 346 346 340 345 347 348 347 345 349 347 350 352 348 349 350 351 353 352 352 352 353 350 347 349 351 352 349 348 346
351 350 351 349 350 347 346 344 344 343 339 341 336 336 339 346 343 344 347 348 346 346 348 347 349 347 348 350 350 353 353 353 353 353 352 351 349 349 353 351 352 352 348
351 349 350 349 350 347 346 347 346 345 344 339 338 337 338 345 347 339 348 348 344 348 347 346 342 350 351 354 355 353 353 353 350 350 348 349 351 349 346 345 351 352 350
350 350 349 349 348 347 347 347 345 344 345 345 339 336 338 340 342 343 345 348 347 346 345 345 351 349 352 354 352 350 350 353 350 341 346 350 346 346 347 353 348 350 345
351 346 350 348 347 347 347 345 346 345 345 344 340 337 340 335 341 347 346 345 346 344 340 348 349 349 349 348 350 352 353 351 353 351 350 351 348 346 348 348 348 348 348
350 351 348 347 347 347 346 346 346 345 344 343 338 336 334 331 337 343 345 344 343 342 344 348 348 350 349 349 353 353 352 350 350 353 352 348 347 347 347 349 349 347 347
350 350 348 348 347 346 346 346 346 346 345 344 343 342 339 339 336 340 339 343 344 341 346 350 350 350 353 352 352 349 352 348 347 345 349 349 347 346 347 346 346 345 344
350 350 351 349 349 348 348 345 344 343 343 345 342 344 344 342 342 341 340 340 342 341 349 351 352 352 352 352 351 349 347 348 350 349 348 348 349 348 346 346 345 344 343
349 349 351 348 348 348 346 345 346 345 344 345 345 344 345 342 341 344 342 342 343 349 349 352 352 351 351 352 350 350 349 348 348 348 348 348 348 347 346 346 343 343 342
Wind_Speed
12 17 19 21 21 23 24 24 25 25 24 24 24 23 23 23 24 21 20 21 19 16 13 10 9 9 7 6 7 9 10 12 12 12 12 11 9 10 12 13 13 3 4
15 18 18 20 21 23 24 24 24 24 23 23 22 21 21 21 20 20 20 17 14 12 9 6 4 2 2 4 6 7 7 9 13 12 9 13 9 6 7 10 7 7 2
15 19 19 20 20 22 23 23 22 23 22 21 19 19 18 18 18 17 15 12 9 7 5 4 3 2 2 4 5 5 6 10 11 9 11 8 9 4 4 6 7 4 3
15 18 19 21 20 20 21 22 21 21 20 18 17 17 16 15 14 12 10 8 6 3 3 4 4 4 4 4 4 6 7 11 9 9 10 8 1 6 2 1 4 3 3
17 18 20 20 19 19 20 21 20 19 18 16 15 15 14 13 12 11 9 6 2 4 4 4 2 3 3 4 6 8 11 11 10 11 8 2 3 6 5 3 4 3 3
20 19 21 19 18 19 19 20 19 18 17 15 13 13 13 11 9 7 5 2 5 4 2 0 2 5 8 9 7 9 9 7 4 4 2 5 3 6 10 5 5 6 6
18 22 22 20 19 18 17 17 17 16 15 14 11 9 10 9 7 4 4 5 3 2 3 5 7 8 9 8 7 10 7 4 1 6 6 9 5 9 7 4 4 5 8
17 22 23 23 22 19 16 15 16 15 14 13 12 8 6 6 4 5 5 5 5 5 8 9 8 8 8 8 7 8 5 5 6 5 4 12 2 8 8 5 2 5 6
16 22 22 20 19 19 18 14 14 13 12 11 9 7 4 5 5 6 6 7 8 9 9 9 9 10 10 9 9 8 5 8 9 3 7 7 6 8 8 7 5 2 5
14 18 21 21 24 17 19 15 11 11 11 9 7 5 4 4 5 5 6 7 9 9 9 9 8 8 8 9 11 10 7 6 4 6 7 6 4 8 10 9 6 4 2
13 18 20 19 31 22 21 16 10 9 8 7 6 7 8 8 7 3 5 4 7 9 9 9 10 8 10 9 8 12 11 10 12 17 10 6 5 13 14 10 8 6 5
17 16 22 28 23 31 27 26 15 8 7 4 2 9 8 8 1 3 4 5 6 6 8 9 9 10 10 16 13 12 14 12 11 10 6 7 13 14 14 12 10 9 10
20 20 19 23 24 25 26 26 21 13 11 12 10 13 6 6 1 4 4 4 3 5 7 11 12 8 11 9 10 14 15 17 12 11 2 11 17 11 12 14 12 11 10
18 19 19 25 25 26 24 25 21 20 12 13 11 11 9 7 1 1 4 2 7 9 8 9 7 10 8 13 11 14 10 13 14 18 16 7 18 9 12 12 11 10 12
20 17 18 21 24 25 26 23 23 21 18 15 16 15 8 6 8 7 3 2 3 6 5 4 5 11 11 15 16 16 15 12 10 9 11 8 12 10 11 14 12 11 9
19 21 20 23 22 24 26 26 25 19 17 18 18 14 4 9 6 3 2 3 5 7 7 7 10 11 16 15 13 14 17 10 3 9 6 15 12 7 10 13 13 9 7
18 14 21 20 20 21 29 28 26 20 15 11 20 15 13 13 10 7 6 1 3 3 8 8 12 13 13 11 13 15 13 15 7 8 2 10 13 8 3 16 9 11 9
16 13 15 21 21 22 26 26 24 21 24 19 16 14 15 9 13 11 2 5 8 2 11 14 15 12 13 12 13 9 18 21 5 10 7 6 8 11 10 15 13 12 10
13 15 14 20 21 23 21 22 20 20 19 21 23 14 11 9 5 9 3 6 8 2 11 9 15 14 12 13 11 17 15 12 1 11 11 5 14 11 6 15 12 12 6
14 14 13 16 22 21 21 20 17 13 12 14 21 18 12 11 6 11 4 8 8 6 11 12 14 13 13 15 17 19 22 9 9 5 11 8 10 13 11 12 10 6 6
14 15 14 17 22 23 20 20 20 21 17 14 19 20 17 14 13 9 8 4 3 8 13 13 13 15 12 9 15 14 14 6 12 12 8 6 9 15 16 11 16 17 10
14 13 17 17 20 23 21 18 17 15 10 10 15 22 19 17 11 8 7 7 5 10 14 15 17 15 10 10 13 10 8 10 14 5 11 5 10 9 7 11 13 16 15
15 12 18 15 18 20 21 19 17 14 12 12 12 18 19 19 14 13 12 10 12 13 12 17 15 10 11 9 11 7 6 7 14 10 6 7 12 9 10 16 17 15 12
17 14 14 14 14 17 19 20 23 22 18 15 12 10 16 16 18 16 12 9 13 13 13 12 9 7 8 7 11 8 6 6 4 7 14 8 7 8 8 10 13 14 13
19 17 16 14 13 14 18 19 21 24 20 15 12 14 9 11 13 15 14 12 12 12 12 8 5 9 7 8 10 8 6 6 6 7 9 9 9 8 6 8 11 14 11
20 17 14 14 15 14 14 19 18 20 23 19 15 11 7 12 10 5 8 9 10 9 7 5 8 8 8 7 6 6 8 8 7 9 6 6 5 8 9 9 11 11 13
Wind_Direction
110 123 131 123 121 121 124 124 124 125 125 125 123 123 123 124 126 126 126 124 119 114 108 102 100 100 93 70 35 24 30 35 49 65 65 71 76 86 107 107 95 56 94
124 129 133 127 125 124 127 127 127 129 127 126 124 123 123 124 123 122 120 117 114 110 105 100 99 89 1 344 353 2 28 49 71 65 70 68 67 82 126 128 133 150 137
127 132 134 133 128 127 128 129 130 129 127 128 126 122 125 126 127 127 126 122 116 109 101 92 95 81 29 24 40 42 34 78 79 56 54 48 34 68 115 142 141 161 165
130 135 136 136 132 130 131 132 133 132 128 126 125 124 125 128 132 135 132 123 110 103 109 99 90 80 67 58 45 51 64 96 90 52 61 73 12 32 11 225 175 183 170
124 137 135 138 135 135 135 136 137 135 129 125 126 127 125 126 128 131 131 123 92 111 111 106 75 41 75 87 88 74 90 95 90 94 77 67 346 345 338 296 240 198 183
134 139 136 138 137 137 138 139 141 137 131 128 125 127 129 131 133 134 135 115 116 119 117 84 97 105 105 101 80 76 93 86 77 19 78 256 240 330 334 302 272 219 206
129 140 140 138 135 137 136 142 147 139 137 129 125 127 130 126 126 123 122 115 104 103 105 111 118 114 107 93 82 77 84 106 116 10 319 200 297 335 346 306 275 235 224
131 143 146 149 145 135 140 141 142 140 133 129 130 134 136 132 108 108 112 105 100 100 105 111 106 100 90 80 64 57 68 48 99 64 94 191 258 351 4 5 301 248 246
137 147 151 156 150 134 139 143 144 145 142 144 147 146 144 122 107 97 100 99 101 103 105 101 93 84 72 54 46 51 52 35 62 351 87 195 288 342 349 352 354 293 249
142 151 148 154 152 142 137 138 142 145 147 146 153 139 121 106 95 92 98 91 98 96 90 88 77 79 63 50 35 18 2 309 319 229 321 342 263 334 329 332 326 310 278
135 152 145 143 173 154 159 150 143 156 150 151 151 120 111 70 81 57 77 88 89 79 70 55 46 45 22 353 343 350 334 336 325 291 275 302 308 320 323 315 317 293 263
145 143 151 153 154 172 171 174 160 150 124 117 158 122 104 130 91 151 40 79 76 69 27 17 9 0 4 352 346 323 322 338 294 308 293 296 330 307 318 313 303 284 267
154 154 160 162 167 175 171 174 177 171 167 201 198 133 131 163 81 202 24 28 9 353 11 0 346 2 353 324 308 302 301 312 322 296 297 267 325 324 306 312 306 298 274
155 166 173 164 166 173 179 176 179 178 195 201 166 136 138 170 97 59 215 52 354 332 321 346 355 322 314 302 321 346 318 307 318 306 299 284 326 344 341 330 321 313 290
158 169 179 176 179 182 181 175 170 192 200 170 144 136 161 248 206 178 350 131 324 349 303 348 309 307 307 332 338 340 325 289 306 319 325 320 322 4 355 355 338 318 316
155 161 178 179 184 185 180 177 180 185 188 177 163 160 147 177 159 210 264 185 274 333 339 309 319 339 349 340 315 305 322 338 276 3 353 335 27 27 13 2 346 344 335
158 180 181 191 190 194 186 188 191 187 176 181 171 174 164 187 184 168 188 318 311 262 327 325 327 341 332 313 310 325 310 308 337 322 310 3 8 8 331 350 347 335 342
176 196 185 188 185 189 189 200 203 218 206 196 182 177 177 183 171 143 88 298 289 200 349 322 333 310 306 310 306 300 320 306 318 339 58 26 39 13 4 2 10 8 354
189 197 192 191 187 194 194 195 208 207 206 222 208 198 187 150 183 167 107 292 288 358 332 300 299 318 325 322 318 324 326 316 115 41 39 65 16 356 6 357 1 14 48
176 194 205 200 187 190 188 181 173 182 211 208 203 204 202 159 209 179 136 296 304 356 303 292 309 332 329 334 323 333 337 37 346 355 17 18 28 349 341 346 338 120 79
169 183 201 199 193 192 195 194 196 196 196 221 218 206 202 202 196 194 183 234 333 307 296 332 326 321 317 316 328 325 29 345 355 15 31 42 31 5 25 41 30 33 17
184 194 198 203 200 197 198 203 196 187 190 239 213 203 205 208 212 202 241 242 276 298 318 326 316 321 331 343 340 348 340 342 349 329 19 21 39 35 4 349 9 47 56
175 203 188 198 199 202 203 198 188 170 195 211 188 201 214 213 224 231 236 261 285 310 320 299 315 325 339 12 355 326 347 347 357 356 329 44 67 49 19 32 40 42 38
167 180 187 195 194 194 200 206 187 177 189 204 204 211 218 225 229 237 247 267 279 304 311 317 325 341 334 335 338 334 332 352 1 28 54 60 72 77 28 20 9 20 30
166 169 183 184 194 194 198 195 199 196 191 194 195 212 224 238 243 246 253 262 288 301 307 309 324 345 324 322 334 3 16 36 48 341 344 77 78 78 57 37 17 15 32
163 168 182 190 182 202 200 199 198 196 194 184 188 210 219 232 230 263 262 272 280 299 306 300 300 319 325 344 9 33 48 38 27 354 353 58 84 71 68 59 44 37 21